P/2022 P2 ( ZTF )

Japanese version
Home page
Updated on March 5, 2023

---------------------------------------------------------------------

* Profile

Discovery Date August 15, 2022
Magnitude 18.5 mag
Discoverer Zwicky Transient Facility

* Pictures

* Orbital Elements

Epoch 2023 Feb. 25.0 TT = JDT 2460000.5
T 2022 July 10.81729 TT                                 Rudenko
q   1.9823801            (2000.0)            P               Q
n   0.10376899     Peri.  137.60356     +0.34632941     -0.91636393
a   4.4849505      Node   291.22928     +0.79253461     +0.40034625
e   0.5579929      Incl.   12.44203     +0.50194106     +0.00015046
P   9.50
>From 150 observations 2022 Aug. 9-2023 Feb. 21, mean residual 0".8.

* Magnitudes Graph

        m1 =  13.5 + 5 log d + 10.0 log r           [   , 30]  (             - 2022 Aug.  9)
        m1 = -15   + 5 log d + 50   log r(t + 400)  [ 30,142]  (2022 Aug.  9 - 2022 Nov. 29)
        m1 =  13.5 + 5 log d + 10.0 log r           [142,   ]  (2022 Nov. 29 -             )

---------------------------------------------------------------------

The orbital elements are published on M.P.E.C. 2023-D41.
The magnitudes graphs are made with Comet for Windows.

---------------------------------------------------------------------

Copyright(C) Seiichi Yoshida (comet@aerith.net). All rights reserved.